New Ulm, MN

7:41 PM CDT on August 23, 2019 (GMT -0500)
New Ulm Municipal

Weather History for KULM - May, 2019

Change the Weather History Date:

Wednesday, May 22, 2019

  Actual Average Record
Temperature  
Mean Temperature 53 °F -  
Max Temperature 60 °F 74 °F 93 °F (1964)
Min Temperature 46 °F 51 °F 6 °F (1999)
Degree Days  
Heating Degree Days 12    
Growing Degree Days 3 (Base 50)    
Moisture  
Dew Point 47 °F    
Average Humidity 80    
Maximum Humidity 100    
Minimum Humidity 63    
Precipitation  
Precipitation 0.00 in - - ()
Sea Level Pressure  
Sea Level Pressure 29.57 in    
Wind  
Wind Speed 16 mph ()    
Max Wind Speed 25 mph    
Max Gust Speed 33 mph    
Visibility 9.4 miles    
Events Rain    
Averages and records for this station are not official NWS values.
T = Trace of Precipitation, MM = Missing Value Source: Averaged Metar Reports

Daily Weather History Graph

Daily Weather History Graph

Search for Another Location

Airport or City:

Astronomy

May. 22, 2019 Rise Set
Actual Time 5:44 AM CDT 8:45 PM CDT
Civil Twilight 5:09 AM CDT 9:20 PM CDT
Nautical Twilight 4:25 AM CDT 10:04 PM CDT
Astronomical Twilight 3:33 AM CDT 10:57 PM CDT
Moon No Moon Rise 8:51 AM CDT (5/22)
Length of Visible Light 16h 10m
Length of Day
15h 01m
Waning Gibbous, 85% of the Moon is Illuminated
May 22
Waning Gibbous
May 26
Last Quarter
Jun 3
New
Jun 10
First Quarter
Jun 17
Full

Hourly Weather History & Observations

Time (CDT) Temp. Windchill Dew Point Humidity Pressure Visibility Wind Dir Wind Speed Gust Speed Precip Events Conditions
12:15 AM 46.4 °F 37.9 °F 44.6 °F 93% 29.59 in 10.0 mi ESE 25.3 mph 33.4 mph N/A   Overcast
12:35 AM 46.4 °F 38.5 °F 44.6 °F 93% 29.59 in 10.0 mi ESE 21.9 mph 28.8 mph N/A   Overcast
12:55 AM 46.4 °F 39.0 °F 44.6 °F 93% 29.57 in 10.0 mi East 19.6 mph 25.3 mph N/A   Overcast
1:15 AM 46.4 °F 39.8 °F 44.6 °F 93% 29.56 in 10.0 mi East 16.1 mph 27.6 mph N/A   Overcast
1:35 AM 46.4 °F 39.5 °F 44.6 °F 93% 29.54 in 10.0 mi East 17.3 mph 28.8 mph N/A   Overcast
1:55 AM 46.4 °F 39.5 °F 44.6 °F 93% 29.54 in 7.0 mi ESE 17.3 mph 25.3 mph N/A   Overcast
2:15 AM 46.4 °F 40.1 °F 44.6 °F 93% 29.54 in 5.0 mi ESE 15.0 mph 21.9 mph N/A   Overcast
2:35 AM 46.4 °F 41.1 °F 44.6 °F 93% 29.53 in 5.0 mi East 11.5 mph 15.0 mph N/A   Overcast
2:55 AM 46.4 °F 40.7 °F 46.4 °F 100% 29.52 in 4.0 mi ESE 12.7 mph 21.9 mph N/A   Overcast
3:15 AM 48.2 °F - 46.4 °F 93% 29.51 in 7.0 mi ESE 16.1 mph - N/A   Overcast
3:16 AM 48.2 °F - 46.4 °F 93% 29.51 in 7.0 mi ESE 15.0 mph 18.4 mph N/A   Overcast
3:35 AM 48.2 °F - 46.4 °F 93% 29.50 in 10.0 mi ESE 11.5 mph 19.6 mph N/A   Overcast
3:55 AM 48.2 °F - 46.4 °F 93% 29.49 in 7.0 mi ESE 12.7 mph 17.3 mph N/A   Overcast
4:15 AM 48.2 °F - 46.4 °F 93% 29.47 in 7.0 mi East 15.0 mph - N/A Rain Rain
4:16 AM 48.2 °F - 46.4 °F 93% 29.47 in 7.0 mi East 13.8 mph 17.3 mph N/A Rain Rain
4:35 AM 50.0 °F - 48.2 °F 94% 29.47 in 7.0 mi ESE 13.8 mph 20.7 mph N/A   Light Drizzle
4:55 AM 50.0 °F - 48.2 °F 94% 29.46 in 10.0 mi ESE 15.0 mph 26.5 mph N/A   Drizzle
5:15 AM 50.0 °F - 48.2 °F 94% 29.45 in 7.0 mi ESE 17.3 mph 26.5 mph N/A Rain Heavy Rain
5:35 AM 50.0 °F - 48.2 °F 94% 29.44 in 10.0 mi East 12.7 mph 19.6 mph N/A Rain Rain
5:55 AM 50.0 °F - 48.2 °F 94% 29.43 in 10.0 mi East 13.8 mph 23.0 mph N/A Rain Light Rain
6:15 AM 51.8 °F - 48.2 °F 88% 29.42 in 10.0 mi ESE 17.3 mph 23.0 mph N/A Rain Light Rain
6:35 AM 51.8 °F - 50.0 °F 94% 29.42 in 10.0 mi ESE 16.1 mph 20.7 mph N/A Rain Rain
6:55 AM 51.8 °F - 50.0 °F 94% 29.41 in 10.0 mi ESE 16.1 mph 21.9 mph N/A   Light Drizzle
7:15 AM 51.8 °F - 50.0 °F 94% 29.41 in 10.0 mi SE 12.7 mph - N/A   Light Drizzle
7:35 AM 53.6 °F - 51.8 °F 94% 29.42 in 10.0 mi SE 13.8 mph - N/A   Overcast
7:55 AM 53.6 °F - 51.8 °F 94% 29.42 in 10.0 mi SE 13.8 mph 17.3 mph N/A   Overcast
8:15 AM 55.4 °F - 51.8 °F 88% 29.43 in 10.0 mi SSE 12.7 mph - N/A   Overcast
8:35 AM 55.4 °F - 51.8 °F 88% 29.43 in 10.0 mi South 15.0 mph 20.7 mph N/A   Mostly Cloudy
8:55 AM 55.4 °F - 51.8 °F 88% 29.44 in 10.0 mi South 18.4 mph 24.2 mph N/A Rain Light Rain
9:15 AM 55.4 °F - 50.0 °F 82% 29.44 in 10.0 mi South 16.1 mph 26.5 mph N/A Rain Light Rain
9:35 AM 55.4 °F - 50.0 °F 82% 29.44 in 10.0 mi South 19.6 mph 25.3 mph N/A   Overcast
9:55 AM 55.4 °F - 50.0 °F 82% 29.45 in 7.0 mi South 20.7 mph 31.1 mph N/A   Overcast
10:15 AM 53.6 °F - 48.2 °F 82% 29.46 in 10.0 mi South 20.7 mph 28.8 mph N/A   Overcast
10:35 AM 55.4 °F - 50.0 °F 82% 29.47 in 10.0 mi South 17.3 mph 32.2 mph N/A   Overcast
10:55 AM 55.4 °F - 50.0 °F 82% 29.47 in 10.0 mi South 19.6 mph 25.3 mph N/A   Overcast
11:15 AM 55.4 °F - 48.2 °F 77% 29.48 in 10.0 mi South 18.4 mph 26.5 mph N/A   Overcast
11:35 AM 57.2 °F - 48.2 °F 72% 29.48 in 10.0 mi South 20.7 mph 26.5 mph N/A   Mostly Cloudy
11:55 AM 55.4 °F - 46.4 °F 72% 29.49 in 10.0 mi SSW 19.6 mph 25.3 mph N/A   Overcast
12:15 PM 55.4 °F - 46.4 °F 72% 29.50 in 10.0 mi SSW 18.4 mph 31.1 mph N/A   Overcast
12:35 PM 55.4 °F - 44.6 °F 67% 29.51 in 10.0 mi South 20.7 mph 28.8 mph N/A   Overcast
12:55 PM 55.4 °F - 44.6 °F 67% 29.52 in 10.0 mi SSW 20.7 mph 29.9 mph N/A   Overcast
12:56 PM 55.4 °F - 44.6 °F 67% 29.52 in 10.0 mi SSW 20.7 mph 29.9 mph N/A   Overcast
1:15 PM 55.4 °F - 46.4 °F 72% 29.53 in 10.0 mi SSW 18.4 mph 31.1 mph N/A   Overcast
1:35 PM 55.4 °F - 46.4 °F 72% 29.54 in 10.0 mi SSW 17.3 mph 29.9 mph N/A   Overcast
1:55 PM 55.4 °F - 46.4 °F 72% 29.54 in 10.0 mi SSW 21.9 mph 28.8 mph N/A   Overcast
2:15 PM 55.4 °F - 46.4 °F 72% 29.55 in 10.0 mi SSW 17.3 mph 27.6 mph N/A   Overcast
2:35 PM 55.4 °F - 48.2 °F 77% 29.55 in 10.0 mi SSW 17.3 mph 26.5 mph N/A   Overcast
2:55 PM 57.2 °F - 48.2 °F 72% 29.56 in 10.0 mi SSW 17.3 mph 26.5 mph N/A   Overcast
3:15 PM 57.2 °F - 48.2 °F 72% 29.56 in 10.0 mi SSW 24.2 mph 31.1 mph N/A   Mostly Cloudy
3:35 PM 57.2 °F - 48.2 °F 72% 29.57 in 10.0 mi SW 25.3 mph 32.2 mph N/A   Mostly Cloudy
3:55 PM 59.0 °F - 48.2 °F 67% 29.58 in 10.0 mi SSW 19.6 mph 26.5 mph N/A   Overcast
4:15 PM 57.2 °F - 48.2 °F 72% 29.59 in 10.0 mi SW 24.2 mph 29.9 mph N/A   Overcast
4:35 PM 60.8 °F - 48.2 °F 63% 29.59 in 10.0 mi SSW 23.0 mph 33.4 mph N/A   Overcast
4:55 PM 59.0 °F - 48.2 °F 67% 29.60 in 10.0 mi SW 21.9 mph 33.4 mph N/A   Mostly Cloudy
5:15 PM 57.2 °F - 46.4 °F 67% 29.62 in 10.0 mi SW 17.3 mph - N/A   Overcast
5:35 PM 57.2 °F - 46.4 °F 67% 29.63 in 10.0 mi SW 21.9 mph 28.8 mph N/A   Overcast
5:55 PM 57.2 °F - 46.4 °F 67% 29.65 in 10.0 mi SW 19.6 mph 24.2 mph N/A   Overcast
6:15 PM 57.2 °F - 46.4 °F 67% 29.66 in 10.0 mi SW 17.3 mph - N/A   Overcast
6:35 PM 57.2 °F - 44.6 °F 63% 29.67 in 10.0 mi SW 19.6 mph - N/A   Overcast
6:55 PM 55.4 °F - 44.6 °F 67% 29.68 in 10.0 mi SW 21.9 mph 32.2 mph N/A   Overcast
7:15 PM 55.4 °F - 44.6 °F 67% 29.68 in 10.0 mi SW 18.4 mph 25.3 mph N/A   Overcast
7:16 PM 55.4 °F - 44.6 °F 67% 29.68 in 10.0 mi SW 19.6 mph 25.3 mph N/A   Overcast
7:35 PM 55.4 °F - 44.6 °F 67% 29.69 in 10.0 mi SW 13.8 mph 26.5 mph N/A   Overcast
7:55 PM 55.4 °F - 44.6 °F 67% 29.69 in 10.0 mi SW 16.1 mph 21.9 mph N/A   Overcast
8:15 PM 55.4 °F - 44.6 °F 67% 29.71 in 10.0 mi SW 13.8 mph 20.7 mph N/A   Overcast
8:16 PM 55.4 °F - 44.6 °F 67% 29.71 in 10.0 mi SW 13.8 mph 20.7 mph N/A   Overcast
8:35 PM 55.4 °F - 46.4 °F 72% 29.72 in 10.0 mi SW 11.5 mph 19.6 mph N/A   Overcast
8:55 PM 55.4 °F - 44.6 °F 67% 29.72 in 10.0 mi SW 15.0 mph - N/A   Overcast
9:15 PM 55.4 °F - 46.4 °F 72% 29.72 in 10.0 mi SW 17.3 mph 23.0 mph N/A   Overcast
9:35 PM 55.4 °F - 46.4 °F 72% 29.74 in 10.0 mi SW 17.3 mph - N/A   Overcast
9:55 PM 55.4 °F - 46.4 °F 72% 29.75 in 10.0 mi WSW 15.0 mph 20.7 mph N/A   Overcast
10:15 PM 55.4 °F - 46.4 °F 72% 29.76 in 10.0 mi SW 15.0 mph 23.0 mph N/A   Overcast
10:35 PM 53.6 °F - 46.4 °F 77% 29.76 in 10.0 mi SW 18.4 mph 24.2 mph N/A   Overcast
10:55 PM 53.6 °F - 48.2 °F 82% 29.77 in 10.0 mi SW 13.8 mph - N/A   Overcast
10:56 PM 53.6 °F - 48.2 °F 82% 29.77 in 10.0 mi SW 15.0 mph - N/A   Overcast
11:15 PM 53.6 °F - 48.2 °F 82% 29.78 in 10.0 mi SW 13.8 mph 19.6 mph N/A   Overcast
11:35 PM 53.6 °F - 48.2 °F 82% 29.79 in 10.0 mi WSW 12.7 mph - N/A   Overcast
11:55 PM 53.6 °F - 48.2 °F 82% 29.79 in 10.0 mi WSW 12.7 mph - N/A   Overcast